Tunica, MS

6:57 PM CDT on April 25, 2017 (GMT -0500)
Tunica

Weather History for KUTA - February, 2013

Change the Weather History Date:

Tuesday, February 26, 2013

  Actual Average (KAWM) Record (KAWM)
Temperature  
Mean Temperature 47 °F -  
Max Temperature 53 °F 56 °F 76 °F (1986)
Min Temperature 41 °F 36 °F 19 °F (1980)
Degree Days  
Heating Degree Days 18    
Moisture  
Dew Point 37 °F    
Average Humidity 76    
Maximum Humidity 94    
Minimum Humidity 66    
Precipitation  
Precipitation 0.00 in - - ()
Sea Level Pressure  
Sea Level Pressure 29.60 in    
Wind  
Wind Speed 17 mph (SW)    
Max Wind Speed 25 mph    
Max Gust Speed 31 mph    
Visibility 10 miles    
Events      
Averages and records for this station are not official NWS values.
T = Trace of Precipitation, MM = Missing Value Source: NWS Daily Summary

Daily Weather History Graph

Daily Weather History Graph

Search for Another Location

Airport or City:

Trip Planner

Search our weather history database for the weather conditions in past years. The results will help you decide how hot, cold, wet, or windy it might be!

Date:

Astronomy

Feb. 26, 2013 Rise Set
Actual Time 6:33 AM CST 5:54 PM CST
Civil Twilight 6:08 AM CST 6:20 PM CST
Nautical Twilight 5:39 AM CST 6:49 PM CST
Astronomical Twilight 5:10 AM CST 7:18 PM CST
Moon 7:06 PM CST (2/26) 6:40 AM CST (2/26)
Length of Visible Light 12h 11m
Length of Day
11h 20m
Full, 99% of the Moon is Illuminated
Feb 26
Full
Mar 4
Last Quarter
Mar 11
New
Mar 19
First Quarter
Mar 27
Full

Hourly Weather History & Observations

Time (CST) Temp. Windchill Dew Point Humidity Pressure Visibility Wind Dir Wind Speed Gust Speed Precip Events Conditions
12:15 AM 53.6 °F - 51.8 °F 94% 29.37 in 10.0 mi SW 13.8 mph - N/A   Mostly Cloudy
12:35 AM 51.8 °F - 50.0 °F 94% 29.38 in 10.0 mi SSW 15.0 mph - N/A   Mostly Cloudy
12:55 AM 51.8 °F - 48.2 °F 88% 29.39 in 10.0 mi SSW 15.0 mph - N/A   Scattered Clouds
1:15 AM 50.0 °F - 46.4 °F 87% 29.40 in 10.0 mi SW 10.4 mph - N/A   Clear
1:35 AM 50.0 °F - 46.4 °F 87% 29.40 in 10.0 mi SW 13.8 mph - N/A   Clear
1:55 AM 50.0 °F - 46.4 °F 87% 29.41 in 10.0 mi SW 17.3 mph - N/A   Mostly Cloudy
2:15 AM 50.0 °F - 46.4 °F 87% 29.41 in 10.0 mi SSW 16.1 mph - N/A   Overcast
2:35 AM 50.0 °F - 46.4 °F 87% 29.41 in 10.0 mi SW 16.1 mph 21.9 mph N/A   Overcast
2:55 AM 48.2 °F - 44.6 °F 87% 29.42 in 10.0 mi SW 18.4 mph 27.6 mph N/A   Overcast
3:15 AM 48.2 °F - 44.6 °F 87% 29.42 in 10.0 mi SW 13.8 mph - N/A   Overcast
3:35 AM 48.2 °F - 44.6 °F 87% 29.42 in 10.0 mi SSW 13.8 mph 18.4 mph N/A   Mostly Cloudy
3:55 AM 48.2 °F - 41.0 °F 76% 29.43 in 10.0 mi SW 19.6 mph 27.6 mph N/A   Overcast
4:15 AM 46.4 °F 39.8 °F 41.0 °F 81% 29.43 in 10.0 mi SW 16.1 mph 24.2 mph N/A   Overcast
4:35 AM 46.4 °F 39.2 °F 39.2 °F 76% 29.44 in 10.0 mi SW 18.4 mph 25.3 mph N/A   Overcast
4:55 AM 44.6 °F 36.9 °F 37.4 °F 76% 29.44 in 10.0 mi SW 18.4 mph 25.3 mph N/A   Mostly Cloudy
5:15 AM 44.6 °F 37.4 °F 37.4 °F 76% 29.45 in 10.0 mi SW 16.1 mph 23.0 mph N/A   Mostly Cloudy
5:35 AM 44.6 °F 37.2 °F 37.4 °F 76% 29.45 in 10.0 mi SW 17.3 mph - N/A   Overcast
5:55 AM 44.6 °F 36.1 °F 37.4 °F 76% 29.46 in 10.0 mi SW 21.9 mph 29.9 mph N/A   Overcast
6:15 AM 44.6 °F 38.1 °F 37.4 °F 76% 29.46 in 10.0 mi SW 13.8 mph - N/A   Overcast
6:35 AM 44.6 °F 36.4 °F 37.4 °F 76% 29.47 in 10.0 mi SW 20.7 mph 25.3 mph N/A   Overcast
6:55 AM 42.8 °F 35.1 °F 37.4 °F 81% 29.47 in 10.0 mi SW 16.1 mph 23.0 mph N/A   Overcast
7:15 AM 42.8 °F 34.8 °F 37.4 °F 81% 29.48 in 10.0 mi SW 17.3 mph 26.5 mph N/A   Overcast
7:35 AM 42.8 °F 34.8 °F 35.6 °F 76% 29.49 in 10.0 mi SW 17.3 mph 21.9 mph N/A   Scattered Clouds
7:55 AM 42.8 °F 35.4 °F 37.4 °F 81% 29.50 in 10.0 mi SSW 15.0 mph - N/A   Mostly Cloudy
8:15 AM 42.8 °F 34.5 °F 37.4 °F 81% 29.51 in 10.0 mi SSW 18.4 mph 21.9 mph N/A   Mostly Cloudy
8:35 AM 44.6 °F 37.4 °F 37.4 °F 76% 29.52 in 10.0 mi SSW 16.1 mph - N/A   Overcast
8:55 AM 42.8 °F 34.3 °F 37.4 °F 81% 29.53 in 10.0 mi SSW 19.6 mph - N/A   Overcast
9:15 AM 42.8 °F 33.8 °F 37.4 °F 81% 29.54 in 10.0 mi SW 21.9 mph 31.1 mph N/A   Overcast
9:35 AM 42.8 °F 33.1 °F 37.4 °F 81% 29.54 in 10.0 mi SW 25.3 mph 28.8 mph N/A   Overcast
9:55 AM 42.8 °F 34.3 °F 35.6 °F 76% 29.55 in 10.0 mi SW 19.6 mph 28.8 mph N/A   Overcast
10:15 AM 42.8 °F 33.3 °F 35.6 °F 76% 29.56 in 10.0 mi SW 24.2 mph 29.9 mph N/A   Overcast
10:35 AM 42.8 °F 33.8 °F 35.6 °F 76% 29.56 in 10.0 mi SW 21.9 mph 27.6 mph N/A   Overcast
10:55 AM 42.8 °F 33.1 °F 35.6 °F 76% 29.56 in 10.0 mi SW 25.3 mph 31.1 mph N/A   Overcast
11:15 AM 42.8 °F 33.5 °F 35.6 °F 76% 29.57 in 10.0 mi SW 23.0 mph 27.6 mph N/A   Overcast
11:35 AM 42.8 °F 33.8 °F 35.6 °F 76% 29.57 in 10.0 mi SW 21.9 mph 31.1 mph N/A   Overcast
11:55 AM 42.8 °F 34.8 °F 35.6 °F 76% 29.58 in 10.0 mi SW 17.3 mph 27.6 mph N/A   Overcast
12:15 PM 42.8 °F 34.3 °F 35.6 °F 76% 29.59 in 10.0 mi SW 19.6 mph - N/A   Mostly Cloudy
12:35 PM 42.8 °F 34.0 °F 35.6 °F 76% 29.59 in 10.0 mi SW 20.7 mph 25.3 mph N/A   Mostly Cloudy
12:55 PM 42.8 °F 33.8 °F 35.6 °F 76% 29.59 in 10.0 mi SW 21.9 mph 28.8 mph N/A   Mostly Cloudy
1:15 PM 42.8 °F 34.5 °F 35.6 °F 76% 29.59 in 10.0 mi WSW 18.4 mph 23.0 mph N/A   Overcast
1:35 PM 42.8 °F 33.5 °F 33.8 °F 70% 29.61 in 10.0 mi WSW 23.0 mph 27.6 mph N/A   Overcast
1:55 PM 42.8 °F 34.8 °F 33.8 °F 70% 29.62 in 10.0 mi WSW 17.3 mph 27.6 mph N/A   Overcast
2:15 PM 44.6 °F 36.6 °F 33.8 °F 66% 29.62 in 10.0 mi WSW 19.6 mph - N/A   Overcast
2:35 PM 44.6 °F 37.2 °F 33.8 °F 66% 29.62 in 10.0 mi WSW 17.3 mph - N/A   Overcast
2:55 PM 44.6 °F 36.9 °F 33.8 °F 66% 29.63 in 10.0 mi WSW 18.4 mph 29.9 mph N/A   Overcast
3:15 PM 44.6 °F 36.6 °F 33.8 °F 66% 29.64 in 10.0 mi WSW 19.6 mph 26.5 mph N/A   Overcast
3:35 PM 42.8 °F 34.5 °F 33.8 °F 70% 29.65 in 10.0 mi WSW 18.4 mph 31.1 mph N/A   Overcast
3:55 PM 42.8 °F 33.8 °F 33.8 °F 70% 29.66 in 10.0 mi WSW 21.9 mph 28.8 mph N/A   Overcast
4:15 PM 42.8 °F 33.3 °F 33.8 °F 70% 29.67 in 10.0 mi WSW 24.2 mph 28.8 mph N/A   Overcast
4:35 PM 42.8 °F 33.5 °F 33.8 °F 70% 29.68 in 10.0 mi West 23.0 mph 31.1 mph N/A   Overcast
4:55 PM 42.8 °F 34.5 °F 33.8 °F 70% 29.69 in 10.0 mi West 18.4 mph 26.5 mph N/A   Overcast
5:15 PM 42.8 °F 34.5 °F 33.8 °F 70% 29.70 in 10.0 mi WSW 18.4 mph 23.0 mph N/A   Overcast
5:35 PM 42.8 °F 35.4 °F 33.8 °F 70% 29.71 in 10.0 mi West 15.0 mph 25.3 mph N/A   Overcast
5:55 PM 42.8 °F 34.5 °F 33.8 °F 70% 29.73 in 10.0 mi WSW 18.4 mph 21.9 mph N/A   Overcast
6:15 PM 42.8 °F 34.8 °F 33.8 °F 70% 29.74 in 10.0 mi WSW 17.3 mph 25.3 mph N/A   Overcast
6:35 PM 42.8 °F 35.1 °F 33.8 °F 70% 29.75 in 10.0 mi West 16.1 mph 20.7 mph N/A   Overcast
6:55 PM 42.8 °F 34.3 °F 33.8 °F 70% 29.77 in 10.0 mi West 19.6 mph 25.3 mph N/A   Overcast
7:15 PM 42.8 °F 34.8 °F 33.8 °F 70% 29.78 in 10.0 mi West 17.3 mph 23.0 mph N/A   Overcast
7:35 PM 42.8 °F 35.1 °F 33.8 °F 70% 29.78 in 10.0 mi West 16.1 mph 21.9 mph N/A   Overcast
7:55 PM 42.8 °F 36.2 °F 33.8 °F 70% 29.80 in 10.0 mi WSW 12.7 mph 21.9 mph N/A   Overcast
8:15 PM 42.8 °F 35.8 °F 33.8 °F 70% 29.80 in 10.0 mi West 13.8 mph 23.0 mph N/A   Overcast
8:35 PM 41.0 °F 34.3 °F 33.8 °F 76% 29.81 in 10.0 mi WSW 11.5 mph - N/A   Overcast
8:55 PM 41.0 °F 34.3 °F 33.8 °F 76% 29.82 in 10.0 mi West 11.5 mph 18.4 mph N/A   Overcast
9:15 PM 41.0 °F 33.5 °F 33.8 °F 76% 29.83 in 10.0 mi West 13.8 mph 21.9 mph N/A   Overcast
9:35 PM 41.0 °F 32.8 °F 32.0 °F 70% 29.83 in 10.0 mi West 16.1 mph 19.6 mph N/A   Overcast
9:55 PM 41.0 °F 33.5 °F 32.0 °F 70% 29.83 in 10.0 mi West 13.8 mph - N/A   Overcast
10:15 PM 41.0 °F 34.3 °F 32.0 °F 70% 29.84 in 10.0 mi West 11.5 mph - N/A   Overcast
10:35 PM 41.0 °F 33.5 °F 32.0 °F 70% 29.85 in 10.0 mi West 13.8 mph - N/A   Overcast
10:55 PM 41.0 °F 34.3 °F 32.0 °F 70% 29.85 in 10.0 mi West 11.5 mph - N/A   Overcast
11:15 PM 41.0 °F 34.7 °F 32.0 °F 70% 29.86 in 10.0 mi West 10.4 mph - N/A   Overcast
11:35 PM 41.0 °F 33.9 °F 32.0 °F 70% 29.86 in 10.0 mi West 12.7 mph - N/A   Overcast
11:55 PM 41.0 °F 34.3 °F 32.0 °F 70% 29.87 in 10.0 mi West 11.5 mph - N/A   Overcast